Home > Weather > Eisenhüttenstadt > Past weeks

Flag for Germany Past Weather in Eisenhüttenstadt, Brandenburg, Germany — Yesterday and Last 2 Weeks

Now
85 °F

Passing clouds.


Feels Like: 85 °F
Forecast: 63 / 76 °F
Wind: 2 mph from South

Location: Zielona Gora

Current Time: Aug 28, 2016 at 6:44:58 PM

Latest Report: Aug 28, 2016 at 6:00 PM


Visibility: 19 mi

Pressure: 29.89 "Hg

Humidity: 44%

Dew Point: 60 °F

Location of EisenhüttenstadtLocation

Past Weather in Eisenhüttenstadt — Graph

°F

Eisenhüttenstadt Temperature Yesterday

Maximum temperature yesterday: 86 °F (at 5:00 PM)
Minimum temperature yesterday: 65 °F (at 5:00 AM)
Average temperature yesterday: 76 °F

High & Low Weather Summary for the Past Weeks

 TemperatureHumidityPressure
High86 °F (Aug 27, 5:00 PM)100% (Aug 17, 7:00 AM)30.35 "Hg (Aug 17, 7:00 AM)
Low50 °F (Aug 17, 6:00 AM)35% (Aug 19, 5:00 PM)29.82 "Hg (Aug 18, 1:00 PM)
Average66 °F68%30.10 "Hg
* Reported Aug 13 5:00 PM — Aug 28 5:00 PM, Eisenhüttenstadt, Weather by CustomWeather, © 2016

Note: Actual official high and low records may vary slightly from our data, if they occured in-between our weather recording intervals... More about our weather records

Advertising

Eisenhüttenstadt Weather History for the Previous 24 Hours

Scroll right to see more
 ConditionsComfort  
Time TempWeatherWind HumidityBarometerVisibility
5:00 PM
Sun, Aug 28
86 °FPassing clouds.3 mph42%29.90 "Hg19 mi
4:00 PM85 °FScattered clouds.2 mph41%29.91 "Hg19 mi
3:00 PM84 °FPartly sunny.3 mph44%29.93 "Hg19 mi
2:00 PM84 °FPartly sunny.3 mph46%29.94 "Hg19 mi
1:00 PM83 °FScattered clouds.3 mph44%29.96 "Hg19 mi
12:00 PM81 °FPassing clouds.3 mph48%29.97 "Hg16 mi
11:00 AM78 °FPassing clouds.3 mph58%29.99 "Hg14 mi
10:00 AM74 °FFog.3 mph67%30.00 "Hg12 mi
9:00 AM71 °FFog.3 mph70%30.02 "Hg12 mi
8:00 AM69 °FFog.2 mph68%30.02 "Hg12 mi
7:00 AM67 °FFog.2 mph67%30.03 "Hg12 mi
1:00 AM72 °FClear.2 mph56%30.07 "Hg31 mi
12:00 AM72 °FClear.2 mph56%30.08 "Hg31 mi
11:00 PM
Sat, Aug 27
74 °FClear.2 mph53%30.08 "Hg31 mi
10:00 PM76 °FClear.1 mph52%30.08 "Hg31 mi
9:00 PM77 °FClear.1 mph50%30.08 "Hg31 mi
8:00 PM78 °FClear.1 mph49%30.07 "Hg28 mi
7:00 PM83 °FSunny.1 mph42%30.06 "Hg28 mi
6:00 PM85 °FSunny.2 mph39%30.07 "Hg25 mi
Weather by CustomWeather, © 2016

See weather overviewHow to use our weather pages